[Iaude] MPEC H88: 2024 FP13 [a=27.92,e=0.88,i=129.6,H=16.3]
    mpec at cfa.harvard.edu 
    mpec at cfa.harvard.edu
       
    Mon Apr 29 11:12:37 EDT 2024
    
    
  
M.P.E.C. 2024-H88                                Issued 2024 April 29, 15:11 UT
     The Minor Planet Electronic Circulars contain information on unusual
         minor planets, routine data on comets and natural satellites,
         and occasional editorial announcements.  They are published
    on behalf of Division F of the International Astronomical Union by the
          Minor Planet Center, Smithsonian Astrophysical Observatory,
                          Cambridge, MA 02138, U.S.A.
			  
             Prepared using the Tamkin Foundation Computer Network
                              MPC at CFA.HARVARD.EDU
            URL https://www.minorplanetcenter.net/    ISSN 1523-6714
                                   2024 FP13                                    
Observations:
     K24F13P  C2024 02 14.51300011 40 19.746-20 08 23.83         21.45GVEH088F52
     K24F13P  C2024 02 14.52404911 40 18.747-20 08 13.68         21.66GVEH088F52
     K24F13P  C2024 02 14.54613611 40 16.765-20 07 53.52         21.82GVEH088F52
     K24F13P* C2024 03 30.27173010 25 04.517-03 29 40.61         21.34wXEH088F52
     K24F13P  C2024 03 30.28349810 25 03.418-03 29 23.04         21.79wXEH088F52
     K24F13P  C2024 03 30.29528910 25 02.345-03 29 05.47         21.66wXEH088F52
     K24F13P  C2024 03 30.30710310 25 01.235-03 28 47.49         22.13wXEH088F52
     K24F13P  C2024 03 30.47154910 24 46.066-03 24 38.98         21.44GVEH088F51
     K24F13P  C2024 03 30.47237010 24 45.964-03 24 37.06         21.35GVEH088F51
     K24F13P  C2024 03 31.12149710 23 47.377-03 08 17.28         21.2 GVEH088H01
     K24F13P  C2024 03 31.12831810 23 46.755-03 08 06.93         21.3 GVEH088H01
     K24F13P  C2024 03 31.13794710 23 45.875-03 07 52.46         21.2 GVEH088H01
     K24F13P  C2024 03 31.14341410 23 45.369-03 07 44.18         21.3 GVEH088H01
     K24F13P KC2024 03 31.15603910 23 44.254-03 07 25.39         21.06GVEH088I52
     K24F13P KC2024 03 31.15990610 23 43.861-03 07 19.27         21.33GVEH088I52
     K24F13P KC2024 03 31.16376810 23 43.534-03 07 13.58         21.29GVEH088I52
     K24F13P KC2024 03 31.16762410 23 43.163-03 07 07.54         21.44GVEH088I52
     K24F13P  C2024 04 03.35133010 19 03.143-01 47 47.79         21.75GVEH088F52
     K24F13P  C2024 04 03.36316310 19 02.119-01 47 30.58         22.18GVEH088F52
     K24F13P KC2024 04 04.21776 10 17 49.50 -01 26 29.7          21.8 RVEH088691
     K24F13P KC2024 04 04.22369 10 17 49.03 -01 26 20.7          21.8 RVEH088691
     K24F13P KC2024 04 04.22960 10 17 48.50 -01 26 12.1          22.1 RVEH088691
     K24F13P 3C2024 04 05.30458310 16 18.737-00 59 56.42         21.48GVEH088T14
     K24F13P 3C2024 04 05.30579110 16 18.642-00 59 54.77         21.41GVEH088T14
     K24F13P 3C2024 04 05.30699810 16 18.533-00 59 52.87         21.42GVEH088T14
     K24F13P  C2024 04 09.33775010 10 57.780+00 36 27.63         21.89wXEH088F51
     K24F13P  C2024 04 09.35027710 10 56.808+00 36 45.44         21.91wXEH088F51
     K24F13P  C2024 04 09.36279610 10 55.849+00 37 02.91         21.72wXEH088F51
     K24F13P  C2024 04 09.37531110 10 54.865+00 37 20.55         22.25wXEH088F51
     K24F13P 1C2024 04 09.49015 10 10 46.16 +00 40 05.1                VEH088Q62
     K24F13P 1C2024 04 09.49979 10 10 45.43 +00 40 18.1          21.1 GVEH088Q62
     K24F13P KC2024 04 10.22636 10 09 50.60 +00 57 12.2          21.0 RVEH088691
     K24F13P KC2024 04 10.24187 10 09 49.40 +00 57 33.7          21.3 RVEH088691
     K24F13P KC2024 04 10.25737 10 09 48.23 +00 57 55.2                VEH088691
     K24F13P KC2024 04 28.20014 09 51 55.23 +07 10 44.6          21.8 RVEH088291
     K24F13P KC2024 04 28.21314 09 51 54.60 +07 10 58.6          21.6 RVEH088291
     K24F13P KC2024 04 28.22612 09 51 54.02 +07 11 12.9          22.3 RVEH088291
Observer details:
291 LPL/Spacewatch II.  Observer J. V. Scotti.  1.8-m f/2.7 reflector + CCD.
691 Steward Observatory, Kitt Peak-Spacewatch.  Observers T. H. Bressi, R. A.
    Mastaler.  0.9-m f/3 reflector + CCD.
F51 Pan-STARRS 1, Haleakala.  Observers J. Herman, T. Lowe, P. Minguez, A.
    Schultz, I. Smith.  Measurers K. Chambers, T. de Boer, J. Fairlamb, H.
    Gao, M. Huber, C.-C. Lin, E. Magnier, Y. Ramanjooloo, R. Wainscoat, R.
    Weryk.  1.8-m Ritchey-Chretien + CCD.
F52 Pan-STARRS 2, Haleakala.  Observers J. Herman, T. Lowe, P. Minguez, A.
    Schultz, I. Smith.  Measurers K. Chambers, T. de Boer, J. Fairlamb, H.
    Gao, M. Huber, C.-C. Lin, E. Magnier, Y. Ramanjooloo, R. Wainscoat, R.
    Weryk.  1.8-m Ritchey-Chretien + CCD.
H01 Magdalena Ridge Observatory, Socorro.  Observers W. H. Ryan, E. V. Ryan.
    Measurer W. H. Ryan.  2.4-m f/8.9 Ritchey-Chretien + CCD.
I52 Steward Observatory, Mt. Lemmon Station.  Observers T. Beuden, H.
    Groeller.  Measurers T. Beuden, V. F. Carvajal, D. Fay, J. B. Fazekas, D.
    C. Fuls, A. R. Gibbs, A. D. Grauer, H. Groeller, J. K. Hogan, R. A.
    Kowalski, S. M. Larson, G. J. Leonard, D. Rankin, R. L. Seaman, F. C.
    Shelly, K. W. Wierzchos.  1.0-m prime focus + CCD.
Q62 iTelescope Observatory, Siding Spring.  Observer H. Sato.  0.51-m f/6.8
    astrograph + CCD.
T14 Canada-France-Hawaii Telescope, Maunakea.  Observers R. Wainscoat, L.
    Wells, T. Burdullis.  Measurers R. Weryk, R. Wainscoat.  3.6-m f/4.1
    reflector + CCD.
Orbital elements:
2024 FP13                                                                       
Epoch 2024 Mar. 31.0 TT = JDT 2460400.5                 Bell                    
M 359.11049              (2000.0)            P               Q                  
n   0.00668129     Peri.   17.33435     -0.83247285     +0.48779346             
a  27.9187497      Node   160.05165     +0.37141680     +0.13938031             
e   0.8829653      Incl.  129.62929     +0.41114294     +0.86176021             
P 148              H   16.32          G   0.15           U   5                  
Residuals in seconds of arc
240214 F52  0.1+  0.0     240331 I52  0.3+  0.3-    240409 F51  0.0   0.0
240214 F52  0.0   0.0     240331 I52  0.3-  0.0     240409 F51  0.2+  0.1-
240214 F52  0.0   0.0     240331 I52  0.1+  0.1-    240409 F51  0.0   0.1-
240330 F52  0.0   0.5+    240331 I52  0.2-  0.1+    240409 Q62  0.1-  0.1+
240330 F52  0.1-  0.2+    240403 F52  0.0   0.1-    240409 Q62  0.2+  0.4-
240330 F52  0.2+  0.1-    240403 F52  0.0   0.4-    240410 691  0.5+  0.1-
240330 F52  0.1-  0.0     240404 691  0.0   0.1-    240410 691  0.2+  0.2-
240330 F51  0.4+  0.4-    240404 691  0.6+  0.2+    240410 691  0.3+  0.3-
240330 F51  0.0   0.2+    240404 691  0.2+  0.1+    240428 291  0.2+  0.1-
240331 H01  0.1+  0.0     240405 T14  0.0   0.0     240428 291  0.3-  0.3-
240331 H01  0.1+  0.1+    240405 T14  0.1+  0.1-    240428 291  0.1-  0.1-
240331 H01  0.1+  0.0     240405 T14  0.0   0.0
240331 H01  0.1-  0.0     240409 F51  0.0   0.1-
Ephemeris:
2024 FP13                a,e,i = 27.92, 0.88, 130                q = 3.2675
Date    TT    R. A. (2000) Decl.     Delta      r    Elong.  Phase     V
2024 03 30    10 25 29.4 -03 36 33   2.5925  3.4782   147.8     8.8    21.7
...
2024 04 14    10 05 19.9 +02 23 09   2.7281  3.4352   127.8    13.3    22.0
...
2024 04 22    09 57 05.0 +05 12 25   2.8338  3.4141   117.3    15.2    22.1
...
2024 04 28    09 52 04.3 +07 07 07   2.9239  3.3991   109.8    16.2    22.2
2024 04 29    09 51 20.0 +07 25 11   2.9396  3.3967   108.5    16.3    22.2
2024 04 30    09 50 37.2 +07 42 59   2.9555  3.3942   107.3    16.5    22.2
...
2024 05 06    09 46 53.9 +09 23 37   3.0541  3.3803   100.1    17.1    22.3
...
2024 05 14    09 43 20.3 +11 22 16   3.1914  3.3628    90.9    17.5    22.4
...
2024 05 29    09 40 27.4 +14 22 58   3.4523  3.3338    74.8    17.1    22.5
M. P. C. Staff               (C) Copyright 2024 MPC           M.P.E.C. 2024-H88
    
    
More information about the Iaude
mailing list